Regional Weather Roundup
Issued by NWS

Home | Current Version | Previous Version | Text Only | Print | Product List | Glossary On
Versions: 1 2 3 4 5 6 7 8 9 10 11 12 13 14 15 16 17 18 19 20 21 22 23 24 25 26 27 28 29 30 31 32 33 34 35 36 37 38 39 40 41 42 43 44 45 46 47 48 49 50
000
ASPQ40 PGUM 220212
RWRPQ
WEATHER ROUNDUP FOR THE MARIANAS AND MICRONESIA
NATIONAL WEATHER SERVICE TIYAN GU
1200 PM CHST MON JAN 22 2018

GUZ001>004-220300-
MARIANA ISLANDS-

CITY           SKY/WX    TMP DP  RH WIND       PRES   REMARKS
GUAM AIRPORT   MOSUNNY   88  75  66 E21G30    29.85F HX  97
ANDERSEN AFB   MOSUNNY   84  73  70 E20G29    29.86F HX  91
ROTA AIRPORT   MOSUNNY   82  72  69 E21G29    29.86F
TINIAN AP      MOSUNNY   84  75  74 E18       29.89R HX  92
SAIPAN AP      MOSUNNY   88  75  66 E23G29    29.85F HX  97

$$

PMZ161-220300-
REPUBLIC OF PALAU-

CITY           SKY/WX    TMP DP  RH WIND       PRES   REMARKS
KOROR AP       LGT RAIN  79  77  94 E7        29.74S
KOROR WSO      CLOUDY    81  77  89 E9        29.75S

$$

PMZ171>174-220300-
FEDERATED STATES OF MICRONESIA-

CITY           SKY/WX    TMP DP  RH WIND       PRES   REMARKS
YAP AIRPORT    CLOUDY    81  77  89 NE12      29.75F
CHUUK AP       PTSUNNY   88  82  84 VRB5      29.73F HX 108
POHNPEI AP     PTSUNNY   88  77  70 E12       29.74F HX 100
POHNPEI WSO    PTSUNNY   88  77  70 NE7       29.77F HX 100
KOSRAE AP      CLOUDY    88  75  66 NE7       29.71F HX  97

$$

PMZ181-220300-
REPUBLIC OF THE MARSHALL ISLANDS-

CITY           SKY/WX    TMP DP  RH WIND       PRES   REMARKS
KWAJALEIN AP   PTSUNNY   86  75  70 NE14      29.74F HX  95
MAJURO AP      PTSUNNY   82  75  78 N10       29.72F
MAJURO WSO     PTSUNNY   82  77  83 CALM      29.70F HX  91

$$




USA.gov is the U.S. government's official web portal to all federal, state and local government web resources and services.